Location: LDNL
(36.4545°S, 141.6685°E)
Time: 18:21:43
(UTC+10:00)

VELOX 1 - Visible Passes

Search period start: 16 May 2022 00:00
Search period end: 26 May 2022 00:00
Orbit: 624 x 641 km, 98.4° (Epoch: 15 May)

Date Brightness Start Highest point End Pass type
(mag) Time Alt. Az. Time Alt. Az. Time Alt. Az.
16 May ? 05:52:52 10° S 05:57:21 79° WSW 06:01:47 10° NNW visible
17 May ? 04:39:29 10° ESE 04:41:53 14° E 04:44:14 10° NE visible
17 May ? 06:14:06 10° S 06:18:23 45° WSW 06:22:36 10° NW visible
18 May ? 04:59:28 10° SE 05:03:07 24° E 05:06:43 10° NNE visible
18 May ? 06:35:35 10° SSW 06:39:20 27° WSW 06:43:03 10° NW visible
19 May ? 05:20:03 10° SSE 05:24:18 41° E 05:28:28 10° N visible
19 May ? 06:57:25 10° SSW 07:00:13 16° WSW 07:03:00 10° WNW visible
20 May ? 05:40:55 10° SSE 05:45:25 74° ENE 05:49:49 10° N visible
20 May ? 18:12:53 10° NW 18:15:13 14° W 18:17:35 10° WSW visible
21 May ? 06:02:01 10° S 06:06:28 64° WSW 06:10:48 10° NNW visible
22 May ? 04:48:04 10° SE 04:51:02 17° E 04:53:59 10° NE visible
22 May ? 06:23:19 10° S 06:27:26 36° WSW 06:31:29 10° NW visible
23 May ? 05:08:20 10° SE 05:12:14 29° E 05:16:05 10° NNE visible
23 May ? 06:44:54 10° SSW 06:48:21 22° WSW 06:51:45 10° WNW visible
24 May ? 05:29:01 10° SSE 05:33:22 51° E 05:37:39 10° N visible
24 May ? 17:59:52 10° NW 18:03:05 20° W 18:06:21 10° SW visible
25 May ? 05:49:58 10° SSE 05:54:26 90° SW 05:58:51 10° NNW visible
25 May ? 18:22:57 10° WNW 18:24:19 11° W 18:25:42 10° WSW visible
